{"data":{"norad_id":58526,"intl_designator":"2023-191U","name":"STARLINK-31013","alt_names":[],"object_type":"PAYLOAD","status":"ACTIVE","operator":null,"country":"US","launch_date":"2023-12-07","launch_site_code":"AFETR","launch_vehicle":null,"mission":null,"orbit_class":"UNKNOWN","rcs_meters":null,"size_class":null,"mass_kg":null,"dimensions":null,"purposes":["comms"],"wikipedia_slug":null,"has_3d_model":false,"image_url":null,"decayed_at":null,"tle_current":{"epoch":"2026-09-20T21:25:34.799232Z","epoch_age_seconds":112885,"freshness":"FRESH","line1":"1 58526U 23191U   26263.89276388  .00041389  00000+0  22839-2 0  9992","line2":"2 58526  42.9984 112.6880 0011968 226.0395 133.9465 15.13234235154956","mean_motion":15.13234235,"eccentricity":0.0011968,"inclination_deg":42.9984,"raan_deg":112.688,"arg_perigee_deg":226.0395,"mean_anomaly_deg":133.9465,"bstar":0.0022839,"rev_number":15495,"period_min":95.160416457271,"perigee_km":518.0812001413,"apogee_km":534.6077670204,"semimajor_km":6904.4814835808,"source":"CELESTRAK","updated_at":"2026-09-21T09:00:33.910404Z"}}}